Change the Weather History Date:

Monday, October 7, 2013

  Actual Average Record
Temperature  
Mean Temperature 79 °F -  
Max Temperature 87 °F 80 °F 89 °F (2008)
Min Temperature 71 °F 73 °F 69 °F (2007)
Cooling Degree Days 14    
Growing Degree Days 29 (Base 50)    
Moisture  
Dew Point 72 °F    
Average Humidity 79    
Maximum Humidity 100    
Minimum Humidity 49    
Precipitation  
Precipitation 0.00 in 0.17 in - ()
Sea Level Pressure  
Sea Level Pressure 30.00 in    
Wind  
Wind Speed 4 mph ()    
Max Wind Speed 21 mph    
Max Gust Speed -    
Visibility 7.3 miles    
Events      
Averages and records for this station are not official NWS values.
T = Trace of Precipitation, MM = Missing Value Source: Averaged Metar Reports

Daily Weather History Graph

Daily Weather History Graph

Search for Another Location

Airport or City:

Trip Planner

Search our weather history database for the weather conditions in past years. The results will help you decide how hot, cold, wet, or windy it might be!

Date:

Astronomy

Oct. 07, 2013 Rise Set
Actual Time 6:05 AM EAT 6:16 PM EAT
Civil Twilight 5:44 AM EAT 6:37 PM EAT
Nautical Twilight 5:20 AM EAT 7:01 PM EAT
Astronomical Twilight 4:55 AM EAT 7:26 PM EAT
Moon 7:50 AM EAT (10/7) 8:31 PM EAT (10/7)
Length of Visible Light 12h 53m
Length of Day
12h 11m
Waxing Crescent, 7% of the Moon is Illuminated
Oct 7
Waxing Crescent
Oct 12
First Quarter
Oct 19
Full
Oct 27
Last Quarter
Nov 3
New

Hourly Weather History & Observations

Time (EAT) Temp. Heat Index Dew Point Humidity Pressure Visibility Wind Dir Wind Speed Gust Speed Precip Events Conditions
12:00 AM 75.2 °F - 71.6 °F 89% 29.98 in 6.2 mi Calm Calm - N/A   Partly Cloudy
1:00 AM 75.2 °F - 71.6 °F 89% 29.98 in 6.2 mi Calm Calm - N/A   Partly Cloudy
2:00 AM 75.2 °F - 71.6 °F 89% 29.98 in 6.2 mi Calm Calm - N/A   Partly Cloudy
3:00 AM 75.2 °F - 71.6 °F 89% 29.98 in 6.2 mi Calm Calm - N/A   Partly Cloudy
4:00 AM 73.4 °F - 71.6 °F 94% 29.98 in 6.2 mi Calm Calm - N/A   Partly Cloudy
5:00 AM 71.6 °F - 71.6 °F 100% 29.98 in 6.2 mi Calm Calm - N/A   Scattered Clouds
6:00 AM 71.6 °F - 71.6 °F 100% 30.01 in 6.2 mi Calm Calm - N/A   Scattered Clouds
7:00 AM 73.4 °F - 73.4 °F 100% 30.01 in 6.2 mi Calm Calm - N/A   Scattered Clouds
8:00 AM 77.0 °F - 73.4 °F 89% 30.01 in 6.2 mi SSE 5.8 mph - N/A   Scattered Clouds
9:00 AM 81 °F - 73 °F 70% 30.06 in 16 mi South 5.8 mph - -   Partly Cloudy
9:00 AM 80.6 °F 85.4 °F 73.4 °F 79% 30.06 in 6.2 mi South 5.8 mph - N/A   Scattered Clouds
10:00 AM 80.6 °F 85.4 °F 73.4 °F 79% 30.06 in 6.2 mi SSW 11.5 mph - N/A   Scattered Clouds
11:00 AM 82.4 °F 88.2 °F 73.4 °F 74% 30.04 in 6.2 mi South 5.8 mph - N/A   Scattered Clouds
12:00 PM 84.2 °F 89.6 °F 71.6 °F 66% 30.01 in 6.2 mi SSE 11.5 mph - N/A   Scattered Clouds
3:00 PM 87 °F - 70 °F 49% 29.96 in 19 mi SE 17.3 mph - -   Scattered Clouds
3:00 PM 87.8 °F 92.6 °F 69.8 °F 55% 29.95 in 6.2 mi SE 17.3 mph - N/A   Partly Cloudy
4:00 PM 86.0 °F 90.4 °F 69.8 °F 58% 29.95 in 6.2 mi SE 20.7 mph - N/A   Partly Cloudy
5:00 PM 86.0 °F 90.4 °F 69.8 °F 58% 29.95 in 6.2 mi SE 16.1 mph - N/A   Partly Cloudy
7:00 PM 80.6 °F 83.2 °F 68.0 °F 65% 29.98 in 6.2 mi East 9.2 mph - N/A   Partly Cloudy
8:00 PM 78.8 °F - 71.6 °F 78% 29.98 in 6.2 mi ESE 6.9 mph - N/A   Partly Cloudy